Location: Cronhütte
(48.9135°N, 9.6869°E)
Time: 22:34:56
(UTC+00:00)

SL-08 R/B - Pass Details

Date: 23 May 2024
Orbit: 945 x 993 km, 83.0° (Epoch: 14 June)

Event Time Altitude Azimuth Distance (km) Brightness Sun altitude
Exits shadow 00:44:07 29° 194° (SSW) 1,710 5.2 -17.8°
Maximum altitude 00:47:32 82° 279° (W) 979 4.4 -17.6°
Drops below altitude 10° 00:53:44 10° 8° (N) 2,696 8.0 -17.2°
Sets 00:56:14 0° 9° (N) 3,640 9.0 -17.1°
